Pagina principale
METAR-TAF:

METAR-TAF

Aeroporti :

Aeroporto di Foggia

Foggia, Italia

latitudine: 41-25-58N, longitudine: 015-32-06E, altezza: 81 m

Osservazione

Il bollettino è stato emesso 59 minuti fa, alle 08:50 UTC
Vento 4 kt da est/nord-est, variando fra nord/nord-est e est/sud-est
Temperature 21°C
Umidità 78%
Pressione 1018 hPa
Visibilità 10 km o più
Nubi sparse ad un'altezza di 3000 ft

METAR: LIBF 170850Z 07004KT 030V120 9999 SCT030 21/17 Q1018

Ora: 11:49 (09:49 UTC)


TAF: mancante

Osservazioni e previsioni meteorologiche di più di 4000 aeroporti (messaggi METAR e TAF).

Le stazioni disponibili sono rappresentate dai dischi gialli e rossi sulla carta.

Puntare il mouse per vedere il nome della stazione.

Clicca sopra per visualizzare le osservazioni e previsioni meteorologiche.

Per cambiare la mappa : fare clic sui pulsanti verdi con una croce nera per ingrandire, il pulsante verde con un trattino per diminuire, o sulla freccia verde per le mappe adiacenti.


METAR-TAF: